{"data":{"norad_id":40973,"epoch":"2026-05-24T20:24:51.516864Z","epoch_age_seconds":83814,"freshness":"FRESH","line1":"1 40973U 15058K   26144.85059626  .00003423  00000+0  28947-3 0  9994","line2":"2 40973  64.7693 325.4394 0123248  69.2334 292.1933 14.94081071111318","mean_motion":14.94081071,"eccentricity":0.0123248,"inclination_deg":64.7693,"raan_deg":325.4394,"arg_perigee_deg":69.2334,"mean_anomaly_deg":292.1933,"bstar":0.00028947,"rev_number":11131,"period_min":96.380312149741,"perigee_km":499.40442008931,"apogee_km":671.04854458351,"semimajor_km":6963.3634823364,"source":"CELESTRAK","updated_at":"2026-05-25T13:38:25.526808Z"}}